FALCON 9 R/B, 62484

Orbit data source: Space-Track

FALCON 9 R/B, 62484 is space debris in HEO originally from a launch on Sat, 04 Jan 2025 UTC launched from the Air Force Eastern Test Range (AFETR). Debris objects in space refer to the collection of defunct objects orbiting the Earth. Examples of debris include non-operational satellites, rocket bodies, and fragments generated from explosions, collisions, or faulty payload assembly.

Loading next visibility...
Identifier
62484, 2025-001B
Orbit
HEO
Country
Flag of USUS
Related business
Manufacturer
SpaceX
Mission
Spacecraft
Bus & Motor
F9ST2, Unknown motor
Mass
~4,000 kg wet, ~4,000 kg dry
Launch date (UTC)
2025-01-04 (1 year ago)
Launch vehicle
Unknown
Launch site
Air Force Eastern Test Range (AFETR)
Object type
Payload
Rocket body
Debris
Shape & HBR
Cyl, 5.4 m
Radar Cross Section
39.980 m², Large (>1 m²)

Expand to show TLE details & history
Last TLE update: 5 days ago

TLE from 5 days ago
0 FALCON 9 R/B
1 62484U 25001B   26122.36904915 -.00000254  00000-0  10032-2 0  9992
2 62484  25.1359 219.8016 7899288 346.7661   1.0895  1.41763297  6854
Epoch: 2026-05-02T08:51Z
TLE epoch observation values (Epoch: 2026-05-02T08:51:25.846Z)
Latitude
0.00016°
Longitude
-133.41589°
Altitude
692.154 km
Speed
10.042 km/s
True Right ascension
14h 38m 55s
True Declination
0° 00' 01"
Sunlit
Object was in full shadow at epoch
Visualization orbit readout
Latitude
Unknown
Longitude
Unknown
Altitude
Unknown
Speed
Unknown
Apparent Right ascension
Unknown
Apparent Declination
Unknown
Sunlit
N/A
Visualization observer readout
Local Sidereal Time
08:31:45
Azimuth
Unknown
Elevation
Unknown
Doppler factor
Unknown
Orbital elements
Apogee altitude
53,543.361 km
Perigee altitude
654.423 km
Semi-major axis
33,477.029 km
Eccentricity
0.78993
Inclination
25.1359°
RAAN
219.8016°
Arg. of periapsis
346.7661°
True anomaly
14.98656°
Mean anomaly
1.0895°
Eccentric anomaly
5.16012°
Mean motion
0.35434 °/min
Orbital period
1,015.97 mins
BSTAR
0.0010032
Loading maneuver chart data...
Computing Atmospheric mass density...
Loading historical data...
Loading historical data...
Loading historical data...
Loading historical data...
Loading historical data...
Loading historical data...
Loading historical data...
Other satellites on launch #1 in the year 2025 (2025-01-04 UTC)

Documentation

Showing up to 5 results
|